Regional Weather Roundup
Issued by NWS

Current Version | Previous Version | Text Only | Print | Product List | Glossary On
Versions: 1 2 3 4 5 6 7 8 9 10 11 12 13 14 15 16 17 18 19 20 21 22 23 24 25 26 27 28 29 30 31 32 33 34 35 36 37 38 39 40 41 42 43 44 45 46 47 48 49 50
000
ASUS43 KDMX 171701
RWRIA

WEATHER ROUNDUP FOR IOWA
NATIONAL WEATHER SERVICE DES MOINES IA
1100 AM CST SUN DEC 17 2017

NOTE: "FAIR" INDICATES FEW OR NO CLOUDS BELOW 12,000 FEET WITH NO
SIGNIFICANT WEATHER AND/OR OBSTRUCTIONS TO VISIBILITY.

* - THESE STATIONS ARE NOT NWS STATIONS...THUS NOT UNDER NWS
QUALITY CONTROL.  THEY ALSO DO NOT REPORT WEATHER SUCH
AS PRECIPITATION OR FOG.

IAZ001>003-012>014-020>022-031>034-043>046-171800-
   NORTHWEST IOWA

CITY           SKY/WX    TMP DP  RH WIND       PRES   REMARKS
CARROLL *      CLOUDY    28  25  86 NW6       30.05R FOG     WCI  22
LE MARS *      CLOUDY    30  27  86 NE5       30.07R WCI  25
ORANGE CITY *  CLOUDY    28  28 100 NE3       30.05R FOG
SHELDON *      CLOUDY    28  28 100 NE8       30.03S FOG     WCI  20
SIOUX CITY     CLOUDY    31  27  85 N3        30.08R
SPENCER        CLOUDY    28  25  88 NE8       30.04S FOG     WCI  20
STORM LAKE *   FOG       27  27 100 NE8       30.03R VSB 3/4 WCI  18
$$

IAZ055>058-069>071-079>083-090>094-171800-
   SOUTHWEST IOWA

CITY           SKY/WX    TMP DP  RH WIND       PRES   REMARKS
ATLANTIC *     CLOUDY    30  27  86 N7        30.03R WCI  23
AUDUBON *      CLOUDY    30  25  80 CALM      30.03R
CLARINDA *     CLOUDY    37  37 100 W7          N/A  WCI  32
COUNCIL BLFS * LGT RAIN  30  30 100 N8        30.04F WCI  23
CRESTON *      CLOUDY    34  34 100 CALM      30.02S
HARLAN  *      CLOUDY    30  27  86 N8        30.08R WCI  23
LAMONI         LGT RAIN  43  40  89 W7        30.01R
RED OAK *      CLOUDY    32  30  93 NW7       30.05R WCI  26
SHENANDOAH *   CLOUDY    34  32  93 NW6       30.06R FOG     WCI  29
$$

IAZ047>049-059>061-072>074-084-171800-
   CENTRAL IOWA

CITY           SKY/WX    TMP DP  RH WIND       PRES   REMARKS
AMES           CLOUDY    34  30  85 E5        30.02S FOG     WCI  30
ANKENY *       PTSUNNY   34  27  75 CALM      30.04R
BOONE *        CLOUDY    32  28  86 E7        30.00S FOG     WCI  26
CHARITON *     CLOUDY    39  37  93 CALM      30.00S
DES MOINES     LGT RAIN  34  27  75 CALM      30.02R
GRINNELL*      CLOUDY    34  29  82 E7        30.02S WCI  28
KNOXVILLE *    MIX PCPN  36  28  75 CALM      30.00S
MARSHALLTOWN   CLOUDY    33  29  85 E12       30.00F FOG     WCI  24
NEWTON *       CLOUDY    34  28  80 SE5       30.01S WCI  30
PELLA *        CLOUDY    36  28  73 CALM      30.03S
$$

IAZ004>006-015-016-023>025-035-036-171800-
   NORTH CENTRAL IOWA

CITY           SKY/WX    TMP DP  RH WIND       PRES   REMARKS
ALGONA *       CLOUDY    30  28  93 NE7       30.02F WCI  23
CLARION *      CLOUDY    30  30 100 E9        30.03S FOG     WCI  22
ESTHERVILLE    CLOUDY    26  24  92 N7        30.04S FOG     WCI  18
FORT DODGE *   CLOUDY    29  28  96 N6        30.03F FOG     WCI  23
MASON CITY     CLOUDY    29  28  96 E8        30.04F FOG     WCI  21
FOREST CITY *  CLOUDY    30  30 100 E6        30.03F FOG     WCI  24
WEBSTER CITY * CLOUDY    32  28  86 E10       30.00F FOG     WCI  24
IOWA FALLS *   CLOUDY    32  30  94 NE8       30.03S FOG     WCI  25
$$

IAZ007>011-017>019-026>030-037>042-050>054-066-171800-
   NORTHEAST IOWA

CITY           SKY/WX    TMP DP  RH WIND       PRES   REMARKS
CEDAR RAPIDS   PTSUNNY   35  32  88 E10       30.02S WCI  27
CHARLES CITY * CLOUDY    28  30 100 E9        30.04F FOG     WCI  20
CLINTON *      CLOUDY    36  33  89 E10       30.04F FOG     WCI  28
DECORAH *      CLOUDY    28  28 100 E10       30.04S FOG     WCI  19
DUBUQUE        CLOUDY    32  30  92 E6        30.03F FOG     WCI  26
MONTICELLO *   CLOUDY    34  32  93 MISG      30.03F
OELWEIN *      CLOUDY    32  32 100 E6        30.04S FOG     WCI  26
WATERLOO       CLOUDY    32  29  88 E9        30.04F FOG     WCI  24
$$

IAZ064-065-067-068-078-171800-
   EAST CENTRAL IOWA

CITY           SKY/WX    TMP DP  RH WIND       PRES   REMARKS
DAVENPORT      CLOUDY    36  32  85 SE8       30.06F FOG     WCI  30
IOWA CITY      CLOUDY    36  30  79 E6        30.05F HAZE    WCI  31
MT. PLEASANT * CLOUDY    45  30  57 SW12      30.03F
MUSCATINE *    MOSUNNY   37  28  70 CALM      30.05F
QUAD CITIES    CLOUDY    35  30  82 E6        30.04F WCI  30
$$

IAZ062-063-075>077-085>089-095>099-171800-
   SOUTHEAST IOWA

CITY           SKY/WX    TMP DP  RH WIND       PRES   REMARKS
BURLINGTON     MOSUNNY   47  31  53 SW15G21   30.04S
FAIRFIELD *    CLOUDY    39  30  70 SW6       30.03R WCI  35
FORT MADISON * CLOUDY    46  30  53 SW9       30.05F
KEOKUK *       LGT RAIN  45  37  76 SW8       30.05S
OSKALOOSA *    RAIN      36  31  82 CALM      30.02S
OTTUMWA        LGT RAIN  39  33  79 S3        30.02S
WASHINGTON *   CLOUDY    37  30  75 SE3       30.04F
$$

ABBREVIATIONS USED IN REMARKS
   TC - TEMPERATURES IN CELSIUS
  WCI - WIND CHILL INDEX
   HX - HEAT INDEX
  VSB - VISIBILITY
$$





USA.gov is the U.S. government's official web portal to all federal, state and local government web resources and services.